This is the latest recevied weather packets stored in our database for station/object WX9WTF. If no packets are shown the sender has not sent any weather packets the latest 10 day(s).
| Time | Temp. | Humidity | Pressure | Rain* | Wind** | Luminosity | Snow |
|---|---|---|---|---|---|---|---|
| 1777648243 | 15° C | 44% | 1019.8 hPa | 0 mm | - | 645 W/m² | - |
| 1777647938 | 15° C | 46% | 1019.9 hPa | 0 mm | - | 633 W/m² | - |
| 1777647636 | 15° C | 48% | 1019.9 hPa | 0 mm | - | 619 W/m² | - |
| 1777647332 | 15° C | 52% | 1019.7 hPa | 0 mm | - | 604 W/m² | - |
| 1777647030 | 13.89° C | 45% | 1019.6 hPa | 0 mm | - | 589 W/m² | - |
| 1777646726 | 14.44° C | 52% | 1019.6 hPa | 0 mm | - | 575 W/m² | - |
| 1777646421 | 14.44° C | 54% | 1019.6 hPa | 0 mm | - | 559 W/m² | - |
| 1777646118 | 15° C | 52% | 1019.9 hPa | 0 mm | - | 540 W/m² | - |
| 1777645815 | 14.44° C | 52% | 1019.9 hPa | 0 mm | - | 525 W/m² | - |
| 1777645513 | 13.33° C | 54% | 1019.7 hPa | 0 mm | - | 507 W/m² | - |
| 1777645208 | 13.89° C | 54% | 1019.7 hPa | 0 mm | - | 490 W/m² | - |
| 1777644904 | 13.89° C | 46% | 1020 hPa | 0 mm | - | 470 W/m² | - |
| 1777644602 | 14.44° C | 52% | 1020 hPa | 0 mm | - | 451 W/m² | - |
| 1777644297 | 14.44° C | 55% | 1020 hPa | 0 mm | - | 433 W/m² | - |
| 1777643994 | 13.89° C | 54% | 1020.1 hPa | 0 mm | - | 412 W/m² | - |
| 1777643691 | 13.89° C | 55% | 1020.1 hPa | 0 mm | - | 394 W/m² | - |
| 1777643389 | 13.89° C | 51% | 1020.1 hPa | 0 mm | - | 374 W/m² | - |
| 1777643085 | 13.89° C | 58% | 1020.1 hPa | 0 mm | - | 356 W/m² | - |
| 1777642782 | 13.89° C | 55% | 1020.2 hPa | 0 mm | - | 338 W/m² | - |
| 1777642478 | 13.89° C | 52% | 1020.1 hPa | 0 mm | - | 321 W/m² | - |
| 1777642175 | 13.89° C | 57% | 1020.2 hPa | 0 mm | - | 300 W/m² | - |
| 1777641872 | 13.33° C | 54% | 1020.2 hPa | 0 mm | - | 283 W/m² | - |
| 1777641572 | 12.22° C | 59% | 1020.1 hPa | 0 mm | - | 265 W/m² | - |
| 1777641267 | 12.22° C | 63% | 1020.3 hPa | 0 mm | - | 247 W/m² | - |
| 1777640964 | 12.22° C | 74% | 1020.3 hPa | 0 mm | - | 229 W/m² | - |
* Rain latest hour (hover to see other rain measurements)
** Current wind speed in m/s (hover to see current wind gust speed)